Weather past 2 weeks in Amsterdam Island, French Southern Territories

Now
57 °F

Cool.


Feels Like: 53 °F
Forecast: 55 / 58 °F
Wind: 18 mph from North

Location: Martin De Vivies Ile Amsterdam

Current Time: Jul 30, 2015 at 5:32:39 PM

Latest Report: Jul 30, 2015 at 4:00 PM


Visibility: N/A

Pressure: 30.20 "Hg

Humidity: 93%

Dew point: 55 °F

Location of Amsterdam IslandLocation

Historic Weather in Amsterdam Island — Graph

°F

Amsterdam Island temperature yesterday

Maximum temperature yesterday: 57 °F (at 3:00 PM)
Minimum temperature yesterday: 51 °F (at 12:00 AM)
Average temperature yesterday: 54 °F

Past Weeks' High & Low Weather Summary

 TemperatureHumidityPressure
High59 °F (Jul 26, 12:00 PM)96% (Jul 27, 4:00 AM)30.61 "Hg (Jul 27, 4:00 AM)
Low45 °F (Jul 18, 7:00 AM)55% (Jul 28, 2:00 PM)29.76 "Hg (Jul 24, 2:00 PM)
Average52 °F78%30.27 "Hg
* Reported Jul 15 4:00 PM — Jul 30 4:00 PM, Amsterdam Island, Weather by CustomWeather, © 2015

Note: Actual official high and low records may vary slightly from our data, if they occured in-between our weather recording intervals... More about our weather records

Advertising

Amsterdam Island weather history for previous 24 hours

 ConditionsComfort  
Time TempWeatherWind HumidityBarometerVisibility
4:00 PM
Thu, Jul 30
57 °FCool.18 mph93%30.20 "HgN/A
3:00 PM57 °FCool.21 mph94%30.20 "HgN/A
2:00 PM57 °FCool.21 mph93%30.20 "HgN/A
1:00 PM57 °FCool.24 mph92%30.21 "HgN/A
12:00 PM57 °FCool.22 mph92%30.23 "HgN/A
11:00 AM56 °FCool.23 mph92%30.26 "HgN/A
10:00 AM58 °FCool.24 mph87%30.27 "HgN/A
8:00 AM57 °FCool.23 mph88%30.26 "HgN/A
7:00 AM56 °FCool.24 mph88%30.26 "HgN/A
6:00 AM57 °FCool.25 mph85%30.25 "HgN/A
5:00 AM57 °FCool.24 mph85%30.25 "HgN/A
4:00 AM56 °FCool.22 mph85%30.26 "HgN/A
3:00 AM56 °FCool.20 mph83%30.27 "HgN/A
2:00 AM56 °FCool.21 mph82%30.29 "HgN/A
1:00 AM56 °FCool.18 mph81%30.30 "HgN/A
12:00 AM56 °FCool.14 mph81%30.31 "HgN/A
11:00 PM
Wed, Jul 29
56 °FCool.16 mph80%30.32 "HgN/A
10:00 PM56 °FCool.18 mph78%30.33 "HgN/A
9:00 PM56 °FCool.18 mph77%30.35 "HgN/A
8:00 PM55 °FCool.20 mph77%30.36 "HgN/A
7:00 PM55 °FCool.21 mph75%30.37 "HgN/A
6:00 PM55 °FCool.20 mph76%30.37 "HgN/A
5:00 PM55 °FCool.20 mph75%30.37 "HgN/A
Weather by CustomWeather, © 2015

See weather overviewHow to use our weather pages